Location: Clinton NY
(43.0598°N, 75.3602°W)
Time: 09:39:01
(UTC-05:00)

Iridium 11 - Visible Passes

Search period start: 10 December 2016 00:00
Search period end: 20 December 2016 00:00
Orbit: 776 x 779 km, 86.4° (Epoch: 09 December)

Date Brightness Start Highest point End Pass type
(mag) Time Alt. Az. Time Alt. Az. Time Alt. Az.
10 Dec 8.5 03:13:00 11° E 03:13:00 11° E 03:13:48 10° E visible
10 Dec 5.5 04:53:35 71° SSW 04:53:35 71° SSW 04:58:15 10° S visible
10 Dec 6.9 17:45:55 10° SSW 17:50:47 40° W 17:55:42 10° NNW visible
11 Dec 6.8 04:21:30 35° SE 04:21:30 35° SE 04:24:36 10° SSE visible
11 Dec 7.3 06:02:04 13° WSW 06:02:04 13° WSW 06:03:06 10° WSW visible
11 Dec 5.8 17:11:58 10° S 17:17:10 72° W 17:22:24 10° N visible
12 Dec 8.0 03:49:21 15° SE 03:49:21 15° SE 03:50:25 10° SE visible
12 Dec 7.3 05:29:54 16° SW 05:29:54 16° SW 05:31:01 10° SW visible
12 Dec 8.3 18:21:41 10° WSW 18:24:52 16° WNW 18:28:03 10° NW visible
13 Dec 7.7 04:57:39 13° SSW 04:57:39 13° SSW 04:58:12 10° SSW visible
13 Dec 7.6 17:46:35 10° SW 17:51:01 28° WNW 17:55:29 10° NNW visible
14 Dec 6.5 17:12:16 10° SSW 17:17:18 50° W 17:22:24 10° N visible
15 Dec 8.5 18:23:46 10° W 18:25:14 11° WNW 18:26:42 10° NW visible
16 Dec 8.1 17:47:31 10° WSW 17:51:18 20° WNW 17:55:07 10° NNW visible
17 Dec 7.2 17:12:46 10° SW 17:17:30 35° W 17:22:17 10° NNW visible
19 Dec 8.3 17:48:54 10° WSW 17:51:38 14° WNW 17:54:23 10° NW visible
